Lid_Strength_Index
5 4 5 6 5 5 4 2 6 2 1 5 4 7 8 10 7 6 7 7 8 8 7 8 8 8 7 5 5 7 6 9 12 10 7 6 7 8 9 14 14 12 12 12
5 4 5 6 5 5 4 4 4 1 2 7 7 7 8 8 8 8 8 8 7 6 7 9 8 7 5 6 5 7 6 9 13 11 9 7 8 8 8 8 10 14 16 14
5 4 5 6 5 4 4 4 6 4 2 4 7 8 8 8 7 8 7 7 7 7 7 6 8 7 6 6 6 6 5 8 10 13 14 10 10 9 8 8 13 12 12 11
4 4 5 5 6 5 4 3 5 6 7 6 7 7 8 9 9 7 7 7 7 7 9 8 8 7 6 5 5 5 6 10 9 8 8 9 9 9 8 9 9 11 10 11
4 4 4 5 5 6 3 6 6 3 6 7 7 9 8 9 9 8 8 8 7 7 8 7 9 7 7 8 6 6 6 10 9 10 8 8 10 9 9 9 9 9 9 9
4 4 4 4 5 7 4 3 3 5 7 7 8 7 8 9 8 7 7 7 7 7 6 5 4 4 5 5 7 8 8 10 11 13 9 9 11 9 8 8 7 8 10 8
3 3 3 4 5 6 5 3 4 5 7 6 8 8 9 9 8 8 7 6 7 5 3 3 4 5 5 6 6 5 9 9 10 12 10 17 9 6 7 8 7 6 7 6
4 3 4 3 5 5 5 3 4 5 7 6 7 8 8 8 7 7 7 6 5 3 5 7 9 8 8 7 7 7 6 8 12 14 12 10 9 7 7 8 8 6 6 6
4 4 3 3 5 6 5 3 2 4 6 7 7 8 8 8 7 7 7 5 4 4 6 8 12 12 10 11 9 6 7 7 10 11 16 15 10 6 5 5 10 5 5 5
5 4 4 5 6 6 5 4 1 5 7 6 7 8 7 6 7 7 7 7 6 5 7 10 11 11 8 11 12 12 9 9 12 12 14 11 7 6 5 11 11 5 5 5
5 5 4 4 5 6 6 4 2 5 7 6 6 6 7 6 6 7 6 7 6 7 9 9 10 10 8 10 8 10 10 11 11 11 13 16 5 6 9 8 5 4 4 4
5 5 5 4 6 6 6 5 2 3 6 6 5 5 4 4 5 6 6 7 6 6 8 8 8 10 8 9 12 6 12 9 11 10 9 6 4 5 4 4 4 4 4 4
5 4 4 5 5 6 5 4 4 5 7 7 7 6 4 3 3 2 7 6 5 6 3 5 7 10 7 11 9 9 7 5 9 8 6 6 5 4 3 4 4 3 3 4
5 5 5 5 5 5 4 4 4 5 7 9 7 4 5 3 2 2 3 4 3 3 5 6 8 9 5 8 7 8 6 6 8 7 5 5 4 4 3 3 3 3 3 3
5 5 5 5 5 4 3 4 4 4 7 10 8 5 4 3 2 3 3 3 4 5 6 7 8 6 6 6 6 7 5 6 8 9 6 6 5 4 3 4 4 3 4 4
6 5 5 4 4 5 5 8 4 4 5 8 10 5 5 3 3 4 4 4 4 5 6 6 5 4 5 9 9 5 5 4 4 6 4 4 3 3 3 4 3 3 3 3
5 5 4 4 4 4 7 9 6 5 5 9 10 8 5 4 4 5 5 3 5 5 5 6 7 6 5 8 10 5 4 3 4 3 3 5 4 5 3 3 3 3 3 3
5 5 5 5 5 5 7 5 6 5 7 7 11 8 7 4 7 6 4 5 4 4 5 4 6 5 6 10 6 5 4 4 4 4 3 3 3 3 4 3 3 4 5 4
6 7 6 4 6 7 6 6 6 4 7 9 9 9 9 5 6 4 4 5 8 4 7 6 5 7 10 7 6 5 4 5 5 4 4 4 4 4 4 4 4 5 5 5
7 6 6 8 6 5 5 7 9 8 8 7 9 6 8 5 5 6 6 5 7 10 7 4 8 8 5 5 4 3 3 3 3 5 5 4 5 5 5 4 4 4 5 6
6 7 7 5 5 6 7 10 10 9 10 8 8 7 8 3 7 8 5 7 6 10 8 8 10 10 6 4 4 3 3 3 3 3 3 3 4 4 4 4 5 5 5 5
7 6 6 5 7 8 11 11 9 9 10 6 7 6 5 4 3 6 6 8 7 11 6 9 11 7 5 4 4 4 3 3 3 3 3 4 3 3 4 4 5 5 4 5
6 8 10 10 9 12 12 13 10 10 7 6 6 6 4 4 4 8 9 10 10 6 10 11 8 5 4 4 4 4 3 3 3 3 3 3 3 3 4 5 4 4 5 5
9 10 12 10 11 10 8 8 6 3 3 3 4 5 6 4 7 7 11 7 6 11 12 10 7 6 5 4 3 3 4 3 3 3 3 3 3 3 4 4 4 5 5 5
9 8 12 10 7 6 6 5 4 3 3 4 5 5 6 6 8 7 8 10 12 10 11 7 6 5 4 4 4 3 3 3 3 3 3 3 3 4 4 4 3 4 4 4
7 8 9 7 7 7 5 5 4 2 2 2 5 8 9 8 7 10 11 11 13 11 9 5 4 4 3 3 3 3 2 2 3 3 2 3 4 4 3 3 3 3 4 3
8 8 5 6 6 6 5 4 3 1 3 7 8 11 11 7 9 10 8 11 10 7 5 4 4 4 4 3 3 2 2 3 2 3 2 2 3 2 3 3 2 2 2 2